World > North America > United States > Ohio

Mayfield Village, Ohio Regional Weather

Lat: 41.56N, Lon: 81.48W
Wx Zone: OHZ011Web Search
Mayfield Village Weather Warning NWS WEATHER ALERT FOR THE MAYFIELD VILLAGE, OH AREA - Issued: 314 PM EDT Sat May 8 2021 Mayfield Village Weather Warning  

Helpful Tip: Type the letters wx in the search engine next time you need to find us.

Feedback


°F Click to change Mayfield Village hourly weather to Imperial units.Click to change Mayfield Village hourly weather to Metric units. °C
Mayfield Village Weather Map
UTC Time: 5/8/2021, 22:35
Your Time:

Mayfield Village, OH Regional Weather

Expires:202105082200;;806172
ASUS41 KCLE 082112
RWRCLE
OHIO REGIONAL WEATHER ROUNDUP
NATIONAL WEATHER SERVICE WILMINGTON, OH
500 PM EDT SAT MAY 08 2021

NOTE: "FAIR" INDICATES FEW OR NO CLOUDS BELOW 12,000 FEET WITH NO
SIGNIFICANT WEATHER AND/OR OBSTRUCTIONS TO VISIBILITY.


OHZ009>014-019>023-028>033-038-089-082200-
   NORTHEAST OHIO
  
CITY           SKY/WX    TMP DP  RH WIND       PRES   REMARKS
CLE-HOPKINS    PTSUNNY   51  34  52 N8        30.07F                  
CLE-LAKEFRONT  FAIR      51  37  58 W10       30.09S                  
CUY CO. ARPT   MOSUNNY   48  36  61 W12       30.09S                  
LORAIN-ELYRIA  FAIR      52  32  46 W6        30.08F                  
ASHTABULA      CLOUDY    47  37  68 W9        30.08R                  
AKRON-CANTON   PTSUNNY   51  33  50 NW10      30.06F                  
WOOSTER        CLOUDY    51  33  50 N6        30.06F                  
MANSFIELD      CLOUDY    54  31  41 SW9       30.06F                  
YOUNGSTOWN     CLOUDY    46  34  62 NW10      30.07R                  
$$
 

SKY/WX - Weather  TMP - Temperature  DP - Dew Point  RH - Relative Humidity
WIND - Wind Direction/Speed PRES - Barometric Pressure VSB - Visibility
WCI - Wind Chill Index E13G22 Wind - East Wind 13 mph/Gusts of 22 mph